SCP
0 0 0 0 0 0 0 0 0 0 0 0 0 0 0 0 0 0 0 0 0 0 0 0 0 0 0 0 0 0 0 0 0 0 0 0 0 0 0 0 0 0 0 0 0 0 0 0 0 -0 0 0 0 0
0 0 0 0 0 0 0 0 0 0 0 0 0 0 0 0 0 0 0 0 0 0 0 0 0 0 0 0 0 0 0 0 0 0 0 0 0 0 0 0 0 0 0 0 0 0 0 0 0 0 0 0 0 0
0 0 0 0 0 0 0 0 0 0 0 0 0 0 0 0 0 0 0 0 0 0 0 0 0 0 0 0 0 0 0 0 0 0 0 0 0 0 0 0 0 0 0 0 0 0 0 0 0 0 0 0 0 0
0 0 0 0 0 0 0 0 0 0 0 0 0 0 0 0 0 0 0 0 0 0 0 0 0 0 0 -0 0 0 0 0 0 0 0 0 0 0 0 0 -0 0 -0 -0 -0 0 0 0 0 0 0 0 0 0
0 0 0 0 0 0 0 0 0 0 0 0 0 0 0 0 0 0 0 0 0 0 0 0 0 0 0 0 0 0 0 0 0 0 0 0 0 0 0 0 0 0 0 0 0 0 0 -0 0 0 0 0 0 0
0 0 0 0 0 0 0 0 0 0 0 0 0 0 0 0 0 0 0 0 0 0 0 0 0 0 -0 0 0 0 0 0 0 0 0 0 0 0 0 0 0 -0 0 0 0 0 0 0 0 0 0 0 0 0
0 0 0 0 0 0 0 0 0 0 0 0 0 0 0 0 0 0 0 0 0 0 0 0 0 0 0 0 0 0 0 0 0 0 0 0 0 0 0 0 0 0 0 0 0 0 0 0 0 0 0 0 0 0
0 0 0 0 0 0 0 0 0 0 0 0 -0 -0 -0 -0 -0 0 0 0 0 0 0 0 0 0 0 0 0 0 0 0 0 0 0 0 0 0 0 0 0 -0 0 0 0 0 0 0 0 0 0 -0 -0 -0
0 0 0 0 0 0 0 0 0 0 -0 -0 -0 -0 -0 0 0 0 0 0 0 0 0 0 0 0 0 0 0 0 0 0 0 0 0 0 0 -0 -0 0 0 0 0 0 0 0 0 0 -0 -0 -0 -0 -0 -0
0 0 0 0 0 0 0 0 0 -0 -0 -0 -0 0 0 0 0 0 0 0 0 0 0 0 0 -0 0 0 0 -0 0 0 0 0 0 0 -0 -0 -0 0 0 0 0 0 0 -0 -0 -0 -0 -0 -0 -0 -0 -0
0 0 0 0 0 0 0 -0 -0 -0 -0 0 0 0 0 0 0 0 0 0 0 0 0 0 -0 0 0 0 0 0 0 0 0 -0 -0 0 0 0 0 0 0 0 0 0 0 -0 -0 0 0 -0 -0 -0 -0 0
0 0 0 0 0 0 0 0 -0 0 0 0 0 0 0 0 0 0 0 0 -0 0 -0 0 -0 0 0 0 0 0 0 0 0 -0 -0 0 -0 0 0 0 0 0 0 -0 -0 -0 0 0 0 0 0 0 0 0
0 0 0 0 0 0 0 0 0 -0 0 0 0 0 0 0 0 -0 0 -0 0 -0 0 0 0 0 0 0 0 0 -0 -0 -0 -0 0 0 0 0 0 0 0 0 -0 -0 -0 0 0 -0 0 0 0 0 0 0
0 0 0 0 0 0 0 0 0 0 0 0 0 0 -0 0 0 -0 -0 -0 -0 -0 0 0 0 0 0 0 0 0 0 -0 -0 0 -0 0 0 0 0 0 -0 -0 -0 -0 0 0 0 -0 -0 0 0 0 0 0
0 0 0 0 0 0 0 0 0 0 0 0 0 0 -0 0 0 -0 -0 0 0 0 0 0 0 0 0 0 0 0 0 0 0 0 0 -0 0 -0 0 -0 -0 -0 0 0 0 0 0 0 0 0 0 0 0 0
0 0 -0 -0 -0 -0 0 0 0 0 0 0 0 0 0 0 0 0 -0 0 0 0 0 0 0 0 0 0 0 0 0 0 0 0 0 0 -0 0 0 0 0 -0 0 0 0 0 0 0 0 0 0 0 0 0
-0 0 -0 -0 -0 -0 -0 0 0 0 0 0 0 0 0 0 0 0 -0 0 0 0 0 0 0 0 0 0 0 -0 0 0 0 -0 0 -0 -0 0 0 0 0 0 0 0 0 0 0 0 0 0 0 0 0 0
0 0 0 -0 -0 -0 -0 0 0 0 0 0 0 0 0 -0 0 0 0 0 0 0 0 0 -0 0 0 0 0 0 0 0 -0 -0 -0 -0 0 0 0 0 0 0 0 0 0 0 -0 0 0 0 0 0 0 0
0 -0 -0 -0 -0 0 0 0 0 -0 0 0 0 0 -0 0 0 0 0 0 0 0 0 0 0 0 0 -0 0 0 0 0 0 0 -0 0 0 0 0 -0 0 0 0 -0 -0 -0 -0 -0 0 0 -0 0 0 0
0 -0 -0 0 0 0 0 -0 -0 -0 0 0 0 0 0 0 0 -0 0 0 -0 -0 0 -0 0 0 -0 -0 0 0 0 0 0 -0 0 0 0 0 0 0 -0 0 0 0 -0 -0 -0 0 0 0 0 -0 0 0
-0 0 0 -0 -0 -0 -0 -0 -0 -0 0 0 0 0 0 0 0 -0 0 0 -0 0 0 0 0 0 -0 -0 0 0 0 0 0 -0 0 0 0 0 0 0 0 0 -0 -0 0 -0 -0 0 0 0 0 0 0 0
0 -0 0 0 0 0 0 -0 -0 -0 -0 0 0 0 0 0 0 0 0 0 0 0 0 0 0 0 0 -0 0 0 0 0 0 0 0 0 0 0 0 0 0 -0 -0 -0 -0 -0 -0 0 0 0 0 0 0 0
0 0 0 0 0 0 0 0 0 0 0 0 0 0 0 -0 0 0 0 0 0 0 0 0 0 0 0 0 0 0 -0 -0 0 0 0 0 0 0 0 0 0 -0 0 0 0 0 0 0 0 0 0 0 0 0
0 0 0 0 0 0 0 0 0 0 0 0 0 0 0 0 0 -0 -0 0 0 0 0 0 0 -0 0 -0 -0 -0 0 -0 0 0 0 0 0 0 0 0 -0 -0 0 -0 -0 0 -0 -0 -0 -0 -0 0 0 0
0 0 0 0 0 0 0 0 0 0 0 0 0 0 0 0 0 0 0 0 0 0 0 0 0 0 -0 0 0 -0 -0 -0 -0 -0 -0 0 0 0 0 -0 -0 -0 -0 -0 0 0 -0 0 0 0 0 0 0 0
0 0 0 0 0 0 0 0 0 0 0 0 0 0 0 0 0 0 -0 0 0 0 0 0 0 0 0 0 0 -0 -0 0 -0 0 0 0 0 0 0 -0 -0 0 0 -0 0 0 0 0 0 0 0 0 0 0
0 0 0 0 0 0 0 0 0 0 0 0 0 0 0 0 0 0 0 0 0 0 0 0 0 0 0 0 0 0 0 0 0 0 0 0 0 0 0 0 -0 -0 0 -0 -0 -0 -0 0 0 0 0 0 0 0
0 0 0 -0 -0 -0 0 0 0 0 0 0 0 0 0 0 0 0 0 0 0 0 0 0 0 0 0 0 0 -0 0 0 0 0 0 0 0 0 0 0 -0 -0 -0 -0 0 0 -0 -0 0 0 0 0 0 0
0 0 0 0 0 0 0 0 0 0 -0 -0 -0 -0 -0 -0 0 0 0 0 0 0 0 0 0 0 0 0 0 0 0 0 0 0 0 0 0 0 0 0 0 0 -0 -0 0 -0 0 0 0 0 0 0 0 0
0 0 0 0 0 0 0 0 0 -0 -0 -0 0 0 0 0 0 0 0 0 0 0 0 0 0 0 0 0 0 -0 -0 -0 -0 0 0 0 0 0 0 -0 -0 -0 0 0 -0 -0 0 0 0 0 0 0 0 0
0 0 0 0 0 0 0 0 0 0 0 0 0 0 0 0 0 0 0 0 0 0 0 0 0 0 0 0 0 0 0 0 -0 0 0 0 0 0 0 0 0 0 -0 -0 -0 0 0 0 0 0 0 0 0 0
0 0 0 0 0 0 0 0 0 0 0 0 0 0 0 0 0 0 0 0 0 0 0 0 0 0 0 0 0 0 0 0 0 0 0 0 0 0 0 0 -0 -0 -0 -0 -0 0 0 0 0 0 0 0 0 0
0 0 0 0 0 0 -0 -0 0 0 0 0 0 0 0 0 0 0 0 0 0 0 0 0 0 0 0 0 0 0 0 0 0 0 -0 -0 0 0 0 0 0 0 -0 -0 -0 0 0 0 0 0 0 0 0 0
Wind_Speed_500mb
44 41 40 39 38 37 36 33 31 29 29 29 27 24 23 24 21 19 13 10 16 15 56 34 12 26 30 22 9 21 14 13 7 5 5 5 5 6 6 10 13 13 7 6 8 5 5 8 9 3 11 38 32 32
42 41 39 39 37 34 32 30 30 29 28 26 24 23 23 22 24 20 10 10 21 29 42 54 57 50 51 46 35 14 20 23 8 5 8 6 5 6 10 8 12 7 3 7 12 9 25 14 8 7 20 23 29 35
38 38 36 36 34 32 29 29 29 27 24 20 22 22 22 18 17 17 22 16 21 29 51 20 24 27 18 26 21 23 16 15 8 9 10 5 4 8 6 9 13 15 28 7 12 10 19 36 25 41 35 42 43 46
37 37 36 34 31 30 29 28 25 22 20 24 25 20 15 16 19 22 28 12 23 16 12 20 20 26 8 15 24 22 27 27 15 13 5 1 1 6 5 11 17 18 25 14 18 15 47 32 43 45 57 54 51 59
34 35 35 31 29 28 24 26 27 23 20 19 16 15 18 20 21 23 22 15 23 21 11 33 54 15 18 30 24 25 23 15 13 11 3 3 5 8 12 11 14 14 4 3 6 34 31 44 56 61 58 59 60 58
32 32 29 27 27 30 32 25 19 19 16 16 18 21 23 22 18 16 7 7 15 28 12 8 29 29 17 12 19 43 27 18 17 4 1 7 18 6 5 6 15 27 26 20 27 41 44 50 59 57 55 54 47 38
33 30 27 28 27 25 21 21 20 21 19 22 22 21 21 22 20 11 10 2 10 13 7 13 13 15 9 10 28 19 33 24 14 9 8 13 14 6 5 7 26 42 30 36 41 47 49 41 54 45 26 32 35 32
30 28 26 23 22 21 21 21 21 20 21 17 17 20 21 24 30 27 13 23 23 17 10 6 9 13 9 5 8 16 25 20 16 10 7 7 3 14 8 26 33 33 38 44 39 44 45 30 39 39 44 48 40 34
25 25 24 25 24 23 21 19 18 17 13 13 21 23 25 10 7 8 19 19 16 16 7 9 6 5 8 8 7 9 11 6 13 10 10 10 4 9 16 28 33 35 35 42 38 31 29 31 36 40 35 35 36 39
27 25 25 22 22 21 15 12 13 12 11 17 19 5 7 7 5 7 4 7 12 14 15 13 17 12 14 22 10 10 10 6 6 11 14 6 7 43 43 39 37 40 36 24 33 34 33 38 40 27 37 41 41 35
25 24 23 23 20 21 21 11 10 8 7 5 6 5 10 10 5 8 8 9 10 8 14 16 32 22 17 11 4 7 5 1 5 6 5 6 5 8 7 19 22 15 26 27 28 31 31 35 19 33 43 37 39 40
23 20 23 20 20 19 16 24 16 11 5 9 19 27 14 9 11 9 7 11 11 8 17 11 16 26 10 4 5 2 2 2 5 18 3 6 6 3 7 16 23 26 27 27 28 27 31 24 27 34 39 45 43 44
23 22 23 21 23 19 12 8 14 17 12 6 6 7 8 10 4 10 10 5 2 19 7 15 8 7 11 9 4 4 5 7 3 3 5 4 9 12 17 19 22 24 25 25 27 28 30 29 33 37 38 36 48 50
16 14 15 21 17 21 15 15 22 14 4 6 8 8 7 9 8 4 5 5 7 15 18 9 7 6 9 7 5 4 7 2 6 5 5 5 15 13 18 19 21 23 24 23 28 29 30 30 31 29 36 34 38 51
11 11 13 18 17 16 11 14 18 14 5 7 10 7 11 13 8 20 13 18 20 17 22 13 13 7 5 2 4 5 6 6 5 4 6 18 16 15 19 22 20 22 23 23 24 31 28 31 34 25 38 35 37 45
5 5 5 14 12 8 12 13 17 13 6 9 12 13 24 13 10 20 9 21 18 18 25 19 5 3 5 5 6 7 5 4 2 8 21 20 11 14 19 12 16 17 24 21 17 33 27 36 34 31 27 48 32 35
13 4 10 12 10 11 15 13 10 10 10 9 14 16 29 31 16 22 15 26 14 20 4 4 9 5 8 6 2 4 2 8 27 26 18 11 11 13 8 15 9 12 12 27 19 25 27 31 36 39 29 39 51 30
7 6 12 11 11 6 8 13 6 7 11 17 20 24 29 23 24 26 22 15 16 19 10 3 11 4 3 6 4 8 16 19 25 18 10 5 16 14 13 15 7 10 7 19 17 18 28 27 34 33 41 30 44 50
10 5 15 13 17 6 6 13 12 9 17 25 31 28 32 34 36 29 28 20 17 15 12 9 4 4 2 12 16 35 26 18 6 9 10 17 20 22 28 34 8 5 2 18 22 22 24 33 29 30 42 35 35 51
7 11 11 9 13 4 6 6 9 9 11 15 22 23 27 35 31 21 22 22 18 16 10 5 6 20 10 27 28 27 22 30 11 24 19 18 26 27 41 35 12 10 14 11 25 27 16 23 32 25 35 47 35 41
1 13 7 7 4 8 8 7 9 12 16 16 24 27 17 23 27 24 20 22 15 19 11 19 21 22 8 13 10 25 18 17 20 13 15 22 29 36 37 8 29 18 21 18 19 22 24 20 21 23 27 34 40 42
2 5 4 5 5 6 11 13 13 12 11 23 30 27 27 19 21 24 25 22 30 27 27 27 24 20 10 21 18 10 4 3 6 10 16 18 29 33 33 35 25 16 18 14 13 17 19 17 19 14 21 26 30 36
7 3 6 8 8 6 14 9 10 8 6 6 6 6 9 11 23 30 10 24 28 36 32 27 26 19 20 17 10 6 9 9 12 14 16 19 23 23 23 20 26 12 18 17 15 12 12 17 16 20 22 25 29 31
4 5 5 6 12 9 7 7 10 8 9 10 5 8 8 6 7 6 6 16 29 23 25 31 23 25 25 24 21 26 20 16 13 12 14 15 22 25 27 27 21 8 2 4 8 9 10 11 15 13 15 19 20 24
6 7 8 9 9 8 7 6 7 7 6 6 4 7 5 7 4 4 2 15 24 16 8 1 15 28 25 29 29 20 18 25 22 21 15 14 17 20 21 18 9 11 9 11 10 9 10 7 8 5 11 21 14 14
6 7 10 5 4 5 7 8 3 4 4 5 6 8 9 5 4 5 4 20 23 24 23 16 17 21 3 12 32 21 22 19 15 18 12 14 17 22 23 6 4 15 9 14 6 7 1 4 9 13 3 12 15 16
6 8 7 8 11 9 8 13 21 8 6 4 3 3 3 2 5 7 14 14 23 24 24 10 16 21 18 20 33 18 16 10 11 13 14 14 19 15 11 17 6 11 13 11 10 5 5 4 1 8 11 6 13 13
9 10 8 14 8 7 4 8 6 5 5 7 9 4 5 8 7 15 23 27 23 22 22 11 4 4 10 15 29 2 7 4 3 14 20 17 15 12 10 11 8 5 13 6 14 9 8 13 10 12 15 12 16 16
10 14 15 16 10 7 6 7 6 4 8 11 5 3 4 6 16 22 23 15 19 17 19 16 10 7 13 18 10 15 1 6 13 7 9 17 11 4 17 20 20 16 14 14 5 7 10 14 9 4 11 11 10 5
8 11 5 5 3 4 3 4 7 15 12 4 2 1 4 3 26 25 15 10 12 16 24 21 11 8 7 9 14 11 10 10 9 6 4 7 12 20 20 20 20 16 11 4 11 11 5 7 9 7 1 9 10 12
8 4 4 6 5 5 9 6 5 10 7 9 8 6 1 4 11 26 21 11 8 6 6 14 13 9 7 8 13 6 4 10 8 9 14 14 11 12 21 14 8 14 9 7 4 5 7 3 6 3 6 3 4 2
7 7 4 2 5 12 13 8 8 9 11 10 10 7 4 5 16 20 26 17 14 10 11 14 13 10 9 8 8 8 9 14 14 9 9 11 10 10 8 9 13 21 28 24 3 9 4 16 15 8 3 7 10 13
12 14 13 7 4 4 10 7 9 11 20 14 13 24 15 6 7 24 32 31 25 17 12 15 23 21 19 21 19 16 15 14 18 16 16 16 15 11 8 8 12 11 8 6 4 7 4 2 4 7 12 14 15 19
Wind_Direction_500mb
292 290 290 289 290 292 294 295 297 299 303 306 308 311 313 315 320 321 290 321 331 293 287 290 325 319 313 281 248 333 345 3 319 346 295 326 9 333 336 334 302 291 268 313 6 341 299 267 33 27 268 293 291 296
287 286 286 287 288 290 290 291 292 296 299 301 304 308 308 308 306 305 309 310 307 282 268 286 289 268 253 251 277 291 302 321 318 348 354 357 341 300 298 289 304 359 69 184 198 230 258 57 334 317 281 301 310 298
286 285 285 285 285 284 283 285 289 293 295 299 303 307 307 310 318 318 308 313 300 295 310 297 316 341 286 245 233 238 263 271 30 11 316 339 322 14 322 302 344 331 329 324 319 325 353 335 338 331 324 316 311 307
290 288 287 284 282 281 282 283 285 284 286 289 299 302 296 296 303 302 305 290 292 290 285 296 302 298 258 245 225 230 235 265 310 335 22 324 315 332 290 297 299 280 304 307 302 322 340 317 319 313 312 307 305 312
294 295 287 282 280 279 275 278 284 282 286 292 294 296 299 296 298 302 303 291 280 255 292 297 316 331 247 236 219 211 221 238 233 254 195 251 274 286 281 272 265 248 286 253 281 300 288 298 309 310 307 307 308 301
292 293 289 280 274 277 283 259 281 282 279 276 281 288 290 294 310 336 338 313 208 248 303 304 296 297 232 200 204 220 199 200 230 103 284 241 240 253 270 269 263 330 327 310 289 305 309 304 309 314 317 317 316 313
278 285 277 273 273 270 258 250 265 266 274 283 290 292 293 293 288 237 254 62 72 21 301 292 287 332 300 225 198 213 191 190 186 186 228 239 229 198 276 246 271 294 317 315 309 316 319 319 312 323 354 348 334 323
268 276 269 267 268 267 267 253 255 267 280 285 287 291 290 288 283 278 279 253 256 284 265 271 276 292 301 296 193 199 177 178 189 212 228 246 189 181 251 250 285 322 319 309 312 318 316 334 345 343 336 337 335 335
268 264 259 260 265 266 262 251 259 268 264 276 295 300 296 272 255 264 235 251 240 207 263 257 278 326 2 6 249 245 163 192 209 187 212 203 187 227 232 266 292 304 296 302 319 329 339 350 342 337 338 344 344 341
260 265 255 258 254 254 246 250 253 240 255 294 311 269 255 217 299 266 209 210 207 214 227 250 261 267 261 266 235 165 186 224 190 216 156 199 246 250 263 273 279 290 309 344 360 1 6 352 343 2 358 347 348 353
251 255 254 255 248 237 228 229 221 255 265 278 263 261 336 328 275 220 213 219 170 237 225 243 232 240 271 254 259 212 183 165 238 183 205 201 254 257 258 266 308 20 19 14 10 1 353 345 360 3 7 7 7 0
243 251 253 241 225 231 229 211 211 222 252 287 302 300 292 226 228 228 205 201 194 242 185 224 227 200 236 201 194 5 289 261 253 141 206 188 248 150 8 355 46 30 24 20 13 4 358 11 14 15 13 18 15 6
242 263 239 213 223 217 218 242 221 232 265 329 266 262 227 236 253 228 232 202 316 335 327 333 306 194 202 194 235 126 232 236 91 218 184 92 92 55 11 49 37 31 29 25 18 10 19 36 18 5 5 14 20 18
255 235 222 228 222 213 229 236 220 201 190 247 244 245 234 208 236 303 329 261 242 236 279 315 324 288 211 190 195 238 236 300 276 115 76 133 56 34 39 51 39 40 31 26 26 18 29 29 23 22 18 9 11 25
263 253 233 221 199 178 173 187 182 175 224 251 250 242 230 267 186 296 305 293 273 256 246 258 229 202 277 227 274 239 229 262 43 86 119 88 60 36 55 47 38 42 29 23 29 23 33 29 25 26 22 19 7 16
205 150 118 136 130 168 189 176 174 185 236 240 243 270 297 290 321 264 333 309 292 295 294 268 304 219 215 183 209 216 288 86 142 101 101 77 57 41 47 40 44 33 31 29 39 32 39 32 27 22 15 32 19 7
165 181 193 165 169 175 173 178 205 221 236 237 244 261 299 295 316 333 19 297 292 296 303 338 10 338 320 260 165 152 188 138 114 107 92 78 34 17 17 14 30 28 27 35 41 40 42 33 35 30 25 25 28 12
196 232 171 161 152 140 190 201 250 242 251 252 270 276 288 316 320 292 295 301 325 320 29 281 149 248 257 303 40 317 318 69 103 107 116 90 28 8 352 345 337 19 42 37 62 43 42 35 35 36 34 17 17 28
239 57 173 180 175 235 244 204 215 259 245 259 265 286 302 278 264 273 278 286 278 298 303 284 267 46 334 77 6 343 338 339 113 156 86 44 11 349 350 356 310 356 73 68 67 54 44 38 32 36 31 36 20 24
271 140 169 193 186 257 277 238 208 258 273 268 278 252 246 265 271 273 279 276 271 271 231 239 297 302 113 61 347 327 328 350 53 63 35 7 352 350 2 15 358 45 81 85 59 45 47 45 41 42 25 34 39 27
251 202 195 170 227 245 270 277 247 246 284 298 291 291 275 286 277 253 260 261 258 271 260 264 263 273 208 121 8 14 10 78 69 39 357 346 355 355 3 107 27 111 84 73 63 45 30 34 42 37 27 29 30 35
125 144 167 224 256 245 258 238 246 294 269 260 280 282 274 269 261 249 259 259 253 238 247 257 266 278 274 222 256 243 3 2 19 353 344 340 337 341 348 0 360 56 75 73 65 45 41 31 36 59 44 33 24 21
145 182 245 217 239 248 266 253 247 245 277 275 207 240 244 290 265 264 221 229 235 242 241 239 242 249 262 283 308 349 241 251 282 294 307 315 315 320 338 342 349 83 83 86 60 47 32 23 21 61 60 57 54 41
284 261 243 224 217 255 249 239 234 261 242 260 272 295 315 230 282 184 231 236 235 229 232 231 227 226 234 231 248 239 249 269 265 277 280 290 299 314 318 331 329 247 145 98 106 58 46 54 42 25 35 42 45 40
281 247 227 254 243 248 249 231 211 218 270 310 318 276 345 311 263 256 307 35 9 359 335 72 300 229 226 223 227 227 227 230 241 256 270 279 283 303 317 339 346 1 27 168 91 74 43 25 30 15 41 48 57 36
263 239 207 254 286 286 321 336 316 256 234 262 267 346 352 323 295 46 27 357 341 4 14 6 8 357 55 337 350 244 210 200 209 250 257 264 276 289 324 30 2 296 18 58 24 352 315 59 12 2 315 36 37 31
265 268 247 274 296 296 296 270 291 257 242 237 287 275 232 233 46 29 354 339 326 312 318 1 344 350 348 351 1 84 117 157 207 225 255 263 277 299 333 1 44 346 21 17 359 26 5 350 31 11 0 18 23 24
265 293 307 327 326 280 272 300 294 304 351 356 331 26 43 19 1 325 313 327 324 327 326 308 182 336 346 27 354 219 109 98 248 266 246 254 255 268 298 270 288 295 308 322 360 314 31 67 66 45 44 43 40 42
241 258 277 267 267 247 236 224 257 335 19 6 24 48 57 33 341 348 2 23 19 12 14 356 351 292 8 351 10 11 117 222 237 249 290 297 358 170 345 269 256 261 258 223 284 357 41 332 277 331 10 30 35 354
249 246 255 270 243 249 271 302 350 348 351 354 232 30 149 6 24 27 17 19 3 21 37 43 40 76 16 357 50 106 77 84 71 48 32 338 360 355 0 33 65 166 182 276 285 296 292 342 351 348 124 354 25 20
282 268 242 243 268 283 298 302 30 59 59 55 104 109 42 356 16 21 24 16 23 8 38 55 46 68 47 69 92 134 14 22 29 348 329 333 324 321 343 322 350 337 306 43 357 315 295 239 259 347 292 297 3 28
260 224 235 286 16 80 91 65 60 57 49 45 39 52 53 56 19 25 24 37 37 34 46 52 41 46 63 45 27 360 7 358 358 2 7 11 16 31 59 19 29 11 10 200 280 294 90 148 147 174 352 54 43 42
243 239 196 158 185 158 171 114 65 55 60 55 67 73 74 74 36 15 24 29 23 30 59 80 68 54 55 55 47 38 24 29 13 10 15 8 360 0 9 11 20 36 67 154 223 268 302 316 352 82 92 85 73 93
Wind_Speed_850mb
44 41 40 39 38 37 36 33 31 29 29 29 27 24 23 24 21 19 13 10 16 15 56 34 12 26 30 22 9 21 14 13 7 5 5 5 5 6 6 10 13 13 7 6 8 5 5 8 9 3 11 38 32 32
42 41 39 39 37 34 32 30 30 29 28 26 24 23 23 22 24 20 10 10 21 29 42 54 57 50 51 46 35 14 20 23 8 5 8 6 5 6 10 8 12 7 3 7 12 9 25 14 8 7 20 23 29 35
38 38 36 36 34 32 29 29 29 27 24 20 22 22 22 18 17 17 22 16 21 29 51 20 24 27 18 26 21 23 16 15 8 9 10 5 4 8 6 9 13 15 28 7 12 10 19 36 25 41 35 42 43 46
37 37 36 34 31 30 29 28 25 22 20 24 25 20 15 16 19 22 28 12 23 16 12 20 20 26 8 15 24 22 27 27 15 13 5 1 1 6 5 11 17 18 25 14 18 15 47 32 43 45 57 54 51 59
34 35 35 31 29 28 24 26 27 23 20 19 16 15 18 20 21 23 22 15 23 21 11 33 54 15 18 30 24 25 23 15 13 11 3 3 5 8 12 11 14 14 4 3 6 34 31 44 56 61 58 59 60 58
32 32 29 27 27 30 32 25 19 19 16 16 18 21 23 22 18 16 7 7 15 28 12 8 29 29 17 12 19 43 27 18 17 4 1 7 18 6 5 6 15 27 26 20 27 41 44 50 59 57 55 54 47 38
33 30 27 28 27 25 21 21 20 21 19 22 22 21 21 22 20 11 10 2 10 13 7 13 13 15 9 10 28 19 33 24 14 9 8 13 14 6 5 7 26 42 30 36 41 47 49 41 54 45 26 32 35 32
30 28 26 23 22 21 21 21 21 20 21 17 17 20 21 24 30 27 13 23 23 17 10 6 9 13 9 5 8 16 25 20 16 10 7 7 3 14 8 26 33 33 38 44 39 44 45 30 39 39 44 48 40 34
25 25 24 25 24 23 21 19 18 17 13 13 21 23 25 10 7 8 19 19 16 16 7 9 6 5 8 8 7 9 11 6 13 10 10 10 4 9 16 28 33 35 35 42 38 31 29 31 36 40 35 35 36 39
27 25 25 22 22 21 15 12 13 12 11 17 19 5 7 7 5 7 4 7 12 14 15 13 17 12 14 22 10 10 10 6 6 11 14 6 7 43 43 39 37 40 36 24 33 34 33 38 40 27 37 41 41 35
25 24 23 23 20 21 21 11 10 8 7 5 6 5 10 10 5 8 8 9 10 8 14 16 32 22 17 11 4 7 5 1 5 6 5 6 5 8 7 19 22 15 26 27 28 31 31 35 19 33 43 37 39 40
23 20 23 20 20 19 16 24 16 11 5 9 19 27 14 9 11 9 7 11 11 8 17 11 16 26 10 4 5 2 2 2 5 18 3 6 6 3 7 16 23 26 27 27 28 27 31 24 27 34 39 45 43 44
23 22 23 21 23 19 12 8 14 17 12 6 6 7 8 10 4 10 10 5 2 19 7 15 8 7 11 9 4 4 5 7 3 3 5 4 9 12 17 19 22 24 25 25 27 28 30 29 33 37 38 36 48 50
16 14 15 21 17 21 15 15 22 14 4 6 8 8 7 9 8 4 5 5 7 15 18 9 7 6 9 7 5 4 7 2 6 5 5 5 15 13 18 19 21 23 24 23 28 29 30 30 31 29 36 34 38 51
11 11 13 18 17 16 11 14 18 14 5 7 10 7 11 13 8 20 13 18 20 17 22 13 13 7 5 2 4 5 6 6 5 4 6 18 16 15 19 22 20 22 23 23 24 31 28 31 34 25 38 35 37 45
5 5 5 14 12 8 12 13 17 13 6 9 12 13 24 13 10 20 9 21 18 18 25 19 5 3 5 5 6 7 5 4 2 8 21 20 11 14 19 12 16 17 24 21 17 33 27 36 34 31 27 48 32 35
13 4 10 12 10 11 15 13 10 10 10 9 14 16 29 31 16 22 15 26 14 20 4 4 9 5 8 6 2 4 2 8 27 26 18 11 11 13 8 15 9 12 12 27 19 25 27 31 36 39 29 39 51 30
7 6 12 11 11 6 8 13 6 7 11 17 20 24 29 23 24 26 22 15 16 19 10 3 11 4 3 6 4 8 16 19 25 18 10 5 16 14 13 15 7 10 7 19 17 18 28 27 34 33 41 30 44 50
10 5 15 13 17 6 6 13 12 9 17 25 31 28 32 34 36 29 28 20 17 15 12 9 4 4 2 12 16 35 26 18 6 9 10 17 20 22 28 34 8 5 2 18 22 22 24 33 29 30 42 35 35 51
7 11 11 9 13 4 6 6 9 9 11 15 22 23 27 35 31 21 22 22 18 16 10 5 6 20 10 27 28 27 22 30 11 24 19 18 26 27 41 35 12 10 14 11 25 27 16 23 32 25 35 47 35 41
1 13 7 7 4 8 8 7 9 12 16 16 24 27 17 23 27 24 20 22 15 19 11 19 21 22 8 13 10 25 18 17 20 13 15 22 29 36 37 8 29 18 21 18 19 22 24 20 21 23 27 34 40 42
2 5 4 5 5 6 11 13 13 12 11 23 30 27 27 19 21 24 25 22 30 27 27 27 24 20 10 21 18 10 4 3 6 10 16 18 29 33 33 35 25 16 18 14 13 17 19 17 19 14 21 26 30 36
7 3 6 8 8 6 14 9 10 8 6 6 6 6 9 11 23 30 10 24 28 36 32 27 26 19 20 17 10 6 9 9 12 14 16 19 23 23 23 20 26 12 18 17 15 12 12 17 16 20 22 25 29 31
4 5 5 6 12 9 7 7 10 8 9 10 5 8 8 6 7 6 6 16 29 23 25 31 23 25 25 24 21 26 20 16 13 12 14 15 22 25 27 27 21 8 2 4 8 9 10 11 15 13 15 19 20 24
6 7 8 9 9 8 7 6 7 7 6 6 4 7 5 7 4 4 2 15 24 16 8 1 15 28 25 29 29 20 18 25 22 21 15 14 17 20 21 18 9 11 9 11 10 9 10 7 8 5 11 21 14 14
6 7 10 5 4 5 7 8 3 4 4 5 6 8 9 5 4 5 4 20 23 24 23 16 17 21 3 12 32 21 22 19 15 18 12 14 17 22 23 6 4 15 9 14 6 7 1 4 9 13 3 12 15 16
6 8 7 8 11 9 8 13 21 8 6 4 3 3 3 2 5 7 14 14 23 24 24 10 16 21 18 20 33 18 16 10 11 13 14 14 19 15 11 17 6 11 13 11 10 5 5 4 1 8 11 6 13 13
9 10 8 14 8 7 4 8 6 5 5 7 9 4 5 8 7 15 23 27 23 22 22 11 4 4 10 15 29 2 7 4 3 14 20 17 15 12 10 11 8 5 13 6 14 9 8 13 10 12 15 12 16 16
10 14 15 16 10 7 6 7 6 4 8 11 5 3 4 6 16 22 23 15 19 17 19 16 10 7 13 18 10 15 1 6 13 7 9 17 11 4 17 20 20 16 14 14 5 7 10 14 9 4 11 11 10 5
8 11 5 5 3 4 3 4 7 15 12 4 2 1 4 3 26 25 15 10 12 16 24 21 11 8 7 9 14 11 10 10 9 6 4 7 12 20 20 20 20 16 11 4 11 11 5 7 9 7 1 9 10 12
8 4 4 6 5 5 9 6 5 10 7 9 8 6 1 4 11 26 21 11 8 6 6 14 13 9 7 8 13 6 4 10 8 9 14 14 11 12 21 14 8 14 9 7 4 5 7 3 6 3 6 3 4 2
7 7 4 2 5 12 13 8 8 9 11 10 10 7 4 5 16 20 26 17 14 10 11 14 13 10 9 8 8 8 9 14 14 9 9 11 10 10 8 9 13 21 28 24 3 9 4 16 15 8 3 7 10 13
12 14 13 7 4 4 10 7 9 11 20 14 13 24 15 6 7 24 32 31 25 17 12 15 23 21 19 21 19 16 15 14 18 16 16 16 15 11 8 8 12 11 8 6 4 7 4 2 4 7 12 14 15 19
Wind_Direction_850mb
292 290 290 289 290 292 294 295 297 299 303 306 308 311 313 315 320 321 290 321 331 293 287 290 325 319 313 281 248 333 345 3 319 346 295 326 9 333 336 334 302 291 268 313 6 341 299 267 33 27 268 293 291 296
287 286 286 287 288 290 290 291 292 296 299 301 304 308 308 308 306 305 309 310 307 282 268 286 289 268 253 251 277 291 302 321 318 348 354 357 341 300 298 289 304 359 69 184 198 230 258 57 334 317 281 301 310 298
286 285 285 285 285 284 283 285 289 293 295 299 303 307 307 310 318 318 308 313 300 295 310 297 316 341 286 245 233 238 263 271 30 11 316 339 322 14 322 302 344 331 329 324 319 325 353 335 338 331 324 316 311 307
290 288 287 284 282 281 282 283 285 284 286 289 299 302 296 296 303 302 305 290 292 290 285 296 302 298 258 245 225 230 235 265 310 335 22 324 315 332 290 297 299 280 304 307 302 322 340 317 319 313 312 307 305 312
294 295 287 282 280 279 275 278 284 282 286 292 294 296 299 296 298 302 303 291 280 255 292 297 316 331 247 236 219 211 221 238 233 254 195 251 274 286 281 272 265 248 286 253 281 300 288 298 309 310 307 307 308 301
292 293 289 280 274 277 283 259 281 282 279 276 281 288 290 294 310 336 338 313 208 248 303 304 296 297 232 200 204 220 199 200 230 103 284 241 240 253 270 269 263 330 327 310 289 305 309 304 309 314 317 317 316 313
278 285 277 273 273 270 258 250 265 266 274 283 290 292 293 293 288 237 254 62 72 21 301 292 287 332 300 225 198 213 191 190 186 186 228 239 229 198 276 246 271 294 317 315 309 316 319 319 312 323 354 348 334 323
268 276 269 267 268 267 267 253 255 267 280 285 287 291 290 288 283 278 279 253 256 284 265 271 276 292 301 296 193 199 177 178 189 212 228 246 189 181 251 250 285 322 319 309 312 318 316 334 345 343 336 337 335 335
268 264 259 260 265 266 262 251 259 268 264 276 295 300 296 272 255 264 235 251 240 207 263 257 278 326 2 6 249 245 163 192 209 187 212 203 187 227 232 266 292 304 296 302 319 329 339 350 342 337 338 344 344 341
260 265 255 258 254 254 246 250 253 240 255 294 311 269 255 217 299 266 209 210 207 214 227 250 261 267 261 266 235 165 186 224 190 216 156 199 246 250 263 273 279 290 309 344 360 1 6 352 343 2 358 347 348 353
251 255 254 255 248 237 228 229 221 255 265 278 263 261 336 328 275 220 213 219 170 237 225 243 232 240 271 254 259 212 183 165 238 183 205 201 254 257 258 266 308 20 19 14 10 1 353 345 360 3 7 7 7 0
243 251 253 241 225 231 229 211 211 222 252 287 302 300 292 226 228 228 205 201 194 242 185 224 227 200 236 201 194 5 289 261 253 141 206 188 248 150 8 355 46 30 24 20 13 4 358 11 14 15 13 18 15 6
242 263 239 213 223 217 218 242 221 232 265 329 266 262 227 236 253 228 232 202 316 335 327 333 306 194 202 194 235 126 232 236 91 218 184 92 92 55 11 49 37 31 29 25 18 10 19 36 18 5 5 14 20 18
255 235 222 228 222 213 229 236 220 201 190 247 244 245 234 208 236 303 329 261 242 236 279 315 324 288 211 190 195 238 236 300 276 115 76 133 56 34 39 51 39 40 31 26 26 18 29 29 23 22 18 9 11 25
263 253 233 221 199 178 173 187 182 175 224 251 250 242 230 267 186 296 305 293 273 256 246 258 229 202 277 227 274 239 229 262 43 86 119 88 60 36 55 47 38 42 29 23 29 23 33 29 25 26 22 19 7 16
205 150 118 136 130 168 189 176 174 185 236 240 243 270 297 290 321 264 333 309 292 295 294 268 304 219 215 183 209 216 288 86 142 101 101 77 57 41 47 40 44 33 31 29 39 32 39 32 27 22 15 32 19 7
165 181 193 165 169 175 173 178 205 221 236 237 244 261 299 295 316 333 19 297 292 296 303 338 10 338 320 260 165 152 188 138 114 107 92 78 34 17 17 14 30 28 27 35 41 40 42 33 35 30 25 25 28 12
196 232 171 161 152 140 190 201 250 242 251 252 270 276 288 316 320 292 295 301 325 320 29 281 149 248 257 303 40 317 318 69 103 107 116 90 28 8 352 345 337 19 42 37 62 43 42 35 35 36 34 17 17 28
239 57 173 180 175 235 244 204 215 259 245 259 265 286 302 278 264 273 278 286 278 298 303 284 267 46 334 77 6 343 338 339 113 156 86 44 11 349 350 356 310 356 73 68 67 54 44 38 32 36 31 36 20 24
271 140 169 193 186 257 277 238 208 258 273 268 278 252 246 265 271 273 279 276 271 271 231 239 297 302 113 61 347 327 328 350 53 63 35 7 352 350 2 15 358 45 81 85 59 45 47 45 41 42 25 34 39 27
251 202 195 170 227 245 270 277 247 246 284 298 291 291 275 286 277 253 260 261 258 271 260 264 263 273 208 121 8 14 10 78 69 39 357 346 355 355 3 107 27 111 84 73 63 45 30 34 42 37 27 29 30 35
125 144 167 224 256 245 258 238 246 294 269 260 280 282 274 269 261 249 259 259 253 238 247 257 266 278 274 222 256 243 3 2 19 353 344 340 337 341 348 0 360 56 75 73 65 45 41 31 36 59 44 33 24 21
145 182 245 217 239 248 266 253 247 245 277 275 207 240 244 290 265 264 221 229 235 242 241 239 242 249 262 283 308 349 241 251 282 294 307 315 315 320 338 342 349 83 83 86 60 47 32 23 21 61 60 57 54 41
284 261 243 224 217 255 249 239 234 261 242 260 272 295 315 230 282 184 231 236 235 229 232 231 227 226 234 231 248 239 249 269 265 277 280 290 299 314 318 331 329 247 145 98 106 58 46 54 42 25 35 42 45 40
281 247 227 254 243 248 249 231 211 218 270 310 318 276 345 311 263 256 307 35 9 359 335 72 300 229 226 223 227 227 227 230 241 256 270 279 283 303 317 339 346 1 27 168 91 74 43 25 30 15 41 48 57 36
263 239 207 254 286 286 321 336 316 256 234 262 267 346 352 323 295 46 27 357 341 4 14 6 8 357 55 337 350 244 210 200 209 250 257 264 276 289 324 30 2 296 18 58 24 352 315 59 12 2 315 36 37 31
265 268 247 274 296 296 296 270 291 257 242 237 287 275 232 233 46 29 354 339 326 312 318 1 344 350 348 351 1 84 117 157 207 225 255 263 277 299 333 1 44 346 21 17 359 26 5 350 31 11 0 18 23 24
265 293 307 327 326 280 272 300 294 304 351 356 331 26 43 19 1 325 313 327 324 327 326 308 182 336 346 27 354 219 109 98 248 266 246 254 255 268 298 270 288 295 308 322 360 314 31 67 66 45 44 43 40 42
241 258 277 267 267 247 236 224 257 335 19 6 24 48 57 33 341 348 2 23 19 12 14 356 351 292 8 351 10 11 117 222 237 249 290 297 358 170 345 269 256 261 258 223 284 357 41 332 277 331 10 30 35 354
249 246 255 270 243 249 271 302 350 348 351 354 232 30 149 6 24 27 17 19 3 21 37 43 40 76 16 357 50 106 77 84 71 48 32 338 360 355 0 33 65 166 182 276 285 296 292 342 351 348 124 354 25 20
282 268 242 243 268 283 298 302 30 59 59 55 104 109 42 356 16 21 24 16 23 8 38 55 46 68 47 69 92 134 14 22 29 348 329 333 324 321 343 322 350 337 306 43 357 315 295 239 259 347 292 297 3 28
260 224 235 286 16 80 91 65 60 57 49 45 39 52 53 56 19 25 24 37 37 34 46 52 41 46 63 45 27 360 7 358 358 2 7 11 16 31 59 19 29 11 10 200 280 294 90 148 147 174 352 54 43 42
243 239 196 158 185 158 171 114 65 55 60 55 67 73 74 74 36 15 24 29 23 30 59 80 68 54 55 55 47 38 24 29 13 10 15 8 360 0 9 11 20 36 67 154 223 268 302 316 352 82 92 85 73 93